SBI1021 UUDD-UWKD

Flight info

Callsign SBI1021
Flight time 1h 11m
Altitude 36000
Route KOGOM L94 EKPIR M864 INKEB L94 UNORO T788 KOROM
Aircraft A321/M-S/L

Departure

Time 2026-05-07 12:16
Airport Domodedovo International Airport (UUDD)

Arrival

Time 2026-05-07 13:27
Airport Kazan International Airport (UWKD)
Time Latitude Longitude Altitude Speed Heading
2026-05-07 11:58 55.41302 37.90047 594 ft 0 kts 237°
2026-05-07 12:02 55.41308 37.90066 595 ft 2 kts 242°
2026-05-07 12:02 55.41316 37.90089 594 ft 2 kts 240°
2026-05-07 12:02 55.41323 37.90112 595 ft 2 kts 241°
2026-05-07 12:03 55.41330 37.90135 595 ft 2 kts 240°
2026-05-07 12:03 55.41333 37.90146 595 ft 0 kts 221°
2026-05-07 12:03 55.41339 37.90150 595 ft 1 kts 163°
2026-05-07 12:03 55.41344 37.90145 594 ft 0 kts 141°
2026-05-07 12:04 55.41347 37.90142 594 ft 0 kts 145°
2026-05-07 12:05 55.41346 37.90142 594 ft 0 kts 145°
2026-05-07 12:05 55.41343 37.90146 594 ft 1 kts 145°
2026-05-07 12:05 55.41334 37.90156 594 ft 1 kts 152°
2026-05-07 12:06 55.41311 37.90170 594 ft 5 kts 162°
2026-05-07 12:06 55.41289 37.90185 594 ft 0 kts 155°
2026-05-07 12:06 55.41288 37.90186 595 ft 0 kts 154°
2026-05-07 12:07 55.41287 37.90187 595 ft 0 kts 154°
2026-05-07 12:07 55.41279 37.90194 594 ft 2 kts 152°
2026-05-07 12:07 55.41259 37.90214 594 ft 4 kts 148°
2026-05-07 12:07 55.41242 37.90234 595 ft 0 kts 147°
2026-05-07 12:08 55.41239 37.90238 595 ft 1 kts 147°
2026-05-07 12:08 55.41234 37.90243 595 ft 0 kts 148°
2026-05-07 12:08 55.41232 37.90245 595 ft 0 kts 147°
2026-05-07 12:08 55.41228 37.90250 595 ft 2 kts 149°
2026-05-07 12:09 55.41204 37.90247 595 ft 5 kts 207°
2026-05-07 12:09 55.41166 37.90194 595 ft 8 kts 223°
2026-05-07 12:09 55.41117 37.90139 595 ft 3 kts 194°
2026-05-07 12:09 55.41084 37.90113 595 ft 6 kts 229°
2026-05-07 12:10 55.41050 37.90017 595 ft 11 kts 235°
2026-05-07 12:10 55.40998 37.89904 595 ft 6 kts 218°
2026-05-07 12:10 55.40970 37.89908 595 ft 2 kts 156°
2026-05-07 12:10 55.40942 37.89923 595 ft 6 kts 194°
2026-05-07 12:11 55.40901 37.89850 595 ft 10 kts 232°
2026-05-07 12:11 55.40848 37.89723 595 ft 15 kts 236°
2026-05-07 12:11 55.40772 37.89589 595 ft 17 kts 218°
2026-05-07 12:11 55.40694 37.89418 595 ft 18 kts 235°
2026-05-07 12:12 55.40573 37.89410 595 ft 20 kts 153°
2026-05-07 12:12 55.40441 37.89576 595 ft 26 kts 146°
2026-05-07 12:12 55.40277 37.89771 595 ft 30 kts 145°
2026-05-07 12:12 55.40090 37.89996 595 ft 34 kts 146°
2026-05-07 12:13 55.39878 37.90249 595 ft 38 kts 148°
2026-05-07 12:13 55.39674 37.90499 595 ft 19 kts 146°
2026-05-07 12:13 55.39593 37.90494 595 ft 4 kts 226°
2026-05-07 12:13 55.39591 37.90490 595 ft 0 kts 228°
2026-05-07 12:14 55.39588 37.90486 595 ft 1 kts 230°
2026-05-07 12:14 55.39578 37.90461 595 ft 3 kts 233°
2026-05-07 12:14 55.39559 37.90415 595 ft 5 kts 234°
2026-05-07 12:14 55.39542 37.90339 595 ft 7 kts 271°
2026-05-07 12:15 55.39567 37.90268 595 ft 7 kts 321°
2026-05-07 12:15 55.39720 37.90072 595 ft 61 kts 326°
2026-05-07 12:15 55.40268 37.89420 595 ft 128 kts 327°
2026-05-07 12:15 55.41159 37.88372 689 ft 171 kts 323°
2026-05-07 12:16 55.42183 37.87309 1217 ft 178 kts 335°
2026-05-07 12:16 55.43464 37.86921 1695 ft 198 kts 356°
2026-05-07 12:16 55.44870 37.87093 2139 ft 208 kts
2026-05-07 12:16 55.46359 37.87153 2390 ft 219 kts 354°
2026-05-07 12:17 55.47890 37.86922 2615 ft 231 kts 346°
2026-05-07 12:17 55.49520 37.86258 2834 ft 245 kts 337°
2026-05-07 12:17 55.51082 37.85156 3383 ft 245 kts 332°
2026-05-07 12:17 55.52639 37.83898 3956 ft 247 kts 330°
2026-05-07 12:18 55.54192 37.82614 4530 ft 250 kts 335°
2026-05-07 12:18 55.55909 37.82098 5074 ft 260 kts
2026-05-07 12:18 55.57721 37.82765 5464 ft 276 kts 13°
2026-05-07 12:18 55.59582 37.83797 5879 ft 288 kts 14°
2026-05-07 12:19 55.61498 37.84908 6522 ft 291 kts 17°
2026-05-07 12:19 55.63221 37.86820 7154 ft 301 kts 46°
2026-05-07 12:19 55.64228 37.89982 7854 ft 303 kts 76°
2026-05-07 12:19 55.64297 37.93663 8527 ft 302 kts 102°
2026-05-07 12:20 55.63817 37.97277 9151 ft 305 kts 107°
2026-05-07 12:20 55.63279 38.00909 9735 ft 310 kts 106°
2026-05-07 12:20 55.62752 38.04622 10350 ft 314 kts 105°
2026-05-07 12:20 55.62253 38.08332 10957 ft 317 kts 105°
2026-05-07 12:21 55.61757 38.12138 11545 ft 321 kts 104°
2026-05-07 12:21 55.61257 38.16029 12124 ft 325 kts 104°
2026-05-07 12:21 55.60754 38.19973 12427 ft 339 kts 104°
2026-05-07 12:21 55.60238 38.24056 12763 ft 350 kts 104°
2026-05-07 12:22 55.59704 38.28269 13290 ft 354 kts 104°
2026-05-07 12:22 55.59161 38.32532 13886 ft 356 kts 104°
2026-05-07 12:22 55.58618 38.36769 14459 ft 359 kts 104°
2026-05-07 12:22 55.58067 38.41111 15023 ft 362 kts 101°
2026-05-07 12:23 55.57979 38.45501 15560 ft 365 kts 80°
2026-05-07 12:23 55.58818 38.49705 16153 ft 364 kts 59°
2026-05-07 12:23 55.60106 38.53556 16693 ft 366 kts 56°
2026-05-07 12:23 55.61451 38.57362 17164 ft 371 kts 56°
2026-05-07 12:24 55.62796 38.61245 17681 ft 373 kts 57°
2026-05-07 12:24 55.64119 38.65168 18179 ft 376 kts 58°
2026-05-07 12:24 55.65440 38.69152 18655 ft 379 kts 58°
2026-05-07 12:24 55.66766 38.73185 19279 ft 376 kts 58°
2026-05-07 12:25 55.68058 38.77129 19919 ft 374 kts 58°
2026-05-07 12:25 55.69364 38.81112 20583 ft 371 kts 58°
2026-05-07 12:25 55.70641 38.85006 21233 ft 367 kts 58°
2026-05-07 12:25 55.71909 38.88876 21890 ft 363 kts 57°
2026-05-07 12:26 55.73270 38.92603 22554 ft 360 kts 52°
2026-05-07 12:26 55.74773 38.95998 23187 ft 349 kts 46°
2026-05-07 12:26 55.76411 38.99178 23497 ft 348 kts 44°
2026-05-07 12:26 55.78099 39.02310 23856 ft 352 kts 43°
2026-05-07 12:27 55.79800 39.05464 23971 ft 364 kts 44°
2026-05-07 12:27 55.81569 39.08765 23981 ft 378 kts 44°
2026-05-07 12:27 55.83384 39.12250 24015 ft 391 kts 47°
2026-05-07 12:27 55.85041 39.16130 24202 ft 401 kts 54°
2026-05-07 12:28 55.86474 39.20488 24382 ft 410 kts 60°
2026-05-07 12:28 55.87755 39.25021 24557 ft 419 kts 62°
2026-05-07 12:28 55.89043 39.29731 24724 ft 427 kts 62°
2026-05-07 12:28 55.90350 39.34510 24890 ft 434 kts 62°
2026-05-07 12:29 55.91685 39.39366 25046 ft 441 kts 62°
2026-05-07 12:29 55.93044 39.44288 25228 ft 447 kts 62°
2026-05-07 12:29 55.94409 39.49224 25502 ft 448 kts 62°
2026-05-07 12:29 55.95782 39.54198 25742 ft 452 kts 62°
2026-05-07 12:30 55.97159 39.59216 26069 ft 454 kts 62°
2026-05-07 12:30 55.98560 39.64328 26397 ft 456 kts 62°
2026-05-07 12:30 55.99951 39.69331 26686 ft 458 kts 62°
2026-05-07 12:30 56.01382 39.74425 26975 ft 460 kts 65°
2026-05-07 12:31 56.02423 39.79836 27231 ft 464 kts 75°
2026-05-07 12:31 56.02953 39.85499 27497 ft 466 kts 85°
2026-05-07 12:31 56.03106 39.91261 27796 ft 467 kts 88°
2026-05-07 12:31 56.03169 39.97016 28061 ft 469 kts 89°
2026-05-07 12:32 56.03218 40.02898 28318 ft 471 kts 89°
2026-05-07 12:32 56.03271 40.08711 28584 ft 473 kts 89°
2026-05-07 12:32 56.03332 40.14549 28843 ft 474 kts 89°
2026-05-07 12:32 56.03397 40.20410 29165 ft 474 kts 89°
2026-05-07 12:33 56.03530 40.32116 29919 ft 471 kts 89°
2026-05-07 12:33 56.03594 40.37935 30278 ft 470 kts 88°
2026-05-07 12:33 56.03656 40.43756 30625 ft 469 kts 88°
2026-05-07 12:34 56.03716 40.49561 30958 ft 468 kts 88°
2026-05-07 12:34 56.03773 40.55383 31285 ft 467 kts 88°
2026-05-07 12:34 56.03828 40.61137 31585 ft 467 kts 88°
2026-05-07 12:34 56.03878 40.66925 31866 ft 466 kts 89°
2026-05-07 12:35 56.03925 40.72684 32139 ft 466 kts 89°
2026-05-07 12:35 56.03967 40.78422 32431 ft 465 kts 89°
2026-05-07 12:35 56.04004 40.84214 32723 ft 464 kts 89°
2026-05-07 12:35 56.04037 40.89917 32967 ft 464 kts 89°
2026-05-07 12:36 56.04069 40.95668 33207 ft 464 kts 89°
2026-05-07 12:36 56.04101 41.01444 33469 ft 464 kts 89°
2026-05-07 12:36 56.04130 41.07144 33726 ft 463 kts 89°
2026-05-07 12:36 56.04157 41.12860 33969 ft 463 kts 90°
2026-05-07 12:37 56.04181 41.18627 34206 ft 463 kts 90°
2026-05-07 12:37 56.04201 41.24339 34439 ft 462 kts 89°
2026-05-07 12:37 56.04219 41.30015 34674 ft 461 kts 89°
2026-05-07 12:37 56.04235 41.35716 34910 ft 461 kts 89°
2026-05-07 12:38 56.04248 41.41437 35110 ft 460 kts 89°
2026-05-07 12:38 56.04259 41.47162 35273 ft 460 kts 89°
2026-05-07 12:38 56.04268 41.52875 35412 ft 460 kts 89°
2026-05-07 12:38 56.04273 41.58550 35555 ft 461 kts 89°
2026-05-07 12:39 56.04277 41.64219 35691 ft 461 kts 89°
2026-05-07 12:39 56.04277 41.69987 35803 ft 462 kts 90°
2026-05-07 12:39 56.04275 41.75669 35907 ft 463 kts 90°
2026-05-07 12:39 56.04271 41.81371 36009 ft 463 kts 90°
2026-05-07 12:40 56.04263 41.87133 36112 ft 464 kts 90°
2026-05-07 12:40 56.04253 41.92900 36212 ft 464 kts 90°
2026-05-07 12:40 56.04240 41.98667 36315 ft 465 kts 90°
2026-05-07 12:40 56.04225 42.04398 36414 ft 465 kts 90°
2026-05-07 12:41 56.04189 42.15932 36604 ft 465 kts 90°
2026-05-07 12:41 56.04142 42.27439 36786 ft 466 kts 90°
2026-05-07 12:42 56.04116 42.33178 36887 ft 466 kts 90°
2026-05-07 12:42 56.04085 42.38983 36919 ft 467 kts 90°
2026-05-07 12:42 56.04015 42.50508 36929 ft 467 kts 90°
2026-05-07 12:43 56.03901 42.62054 36939 ft 467 kts 91°
2026-05-07 12:43 56.03747 42.73664 36942 ft 468 kts 91°
2026-05-07 12:44 56.03589 42.85241 36941 ft 467 kts 91°
2026-05-07 12:44 56.03425 42.96762 36942 ft 467 kts 91°
2026-05-07 12:45 56.03253 43.08322 36955 ft 467 kts 91°
2026-05-07 12:45 56.03068 43.19904 36958 ft 466 kts 91°
2026-05-07 12:46 56.02943 43.31459 36959 ft 466 kts 89°
2026-05-07 12:46 56.03410 43.42934 36964 ft 466 kts 83°
2026-05-07 12:47 56.04197 43.54384 36962 ft 466 kts 82°
2026-05-07 12:47 56.04980 43.65798 36966 ft 466 kts 83°
2026-05-07 12:48 56.05746 43.77281 36971 ft 466 kts 83°
2026-05-07 12:48 56.06499 43.88792 36971 ft 466 kts 83°
2026-05-07 12:49 56.07237 44.00247 36977 ft 466 kts 83°
2026-05-07 12:49 56.07969 44.11765 36978 ft 466 kts 83°
2026-05-07 12:50 56.08685 44.23217 36974 ft 466 kts 83°
2026-05-07 12:50 56.09394 44.34705 36978 ft 466 kts 83°
2026-05-07 12:51 56.10092 44.46158 36986 ft 467 kts 83°
2026-05-07 12:51 56.10804 44.57686 36984 ft 466 kts 83°
2026-05-07 12:52 56.11192 44.69235 36986 ft 467 kts 90°
2026-05-07 12:52 56.11001 44.80796 36988 ft 467 kts 92°
2026-05-07 12:53 56.10739 44.92397 36987 ft 467 kts 92°
2026-05-07 12:53 56.10486 45.03968 36984 ft 467 kts 92°
2026-05-07 12:54 56.10214 45.15498 36992 ft 467 kts 92°
2026-05-07 12:54 56.09943 45.27071 36992 ft 467 kts 92°
2026-05-07 12:55 56.09664 45.38698 36991 ft 467 kts 92°
2026-05-07 12:55 56.09375 45.50192 36991 ft 467 kts 92°
2026-05-07 12:56 56.09071 45.61789 37004 ft 467 kts 92°
2026-05-07 12:56 56.08756 45.73356 37001 ft 467 kts 93°
2026-05-07 12:57 56.08432 45.84904 36999 ft 467 kts 93°
2026-05-07 12:57 56.08096 45.96471 37003 ft 467 kts 93°
2026-05-07 12:58 56.07748 46.08011 36533 ft 470 kts 93°
2026-05-07 12:58 56.07568 46.13863 35952 ft 470 kts 93°
2026-05-07 12:58 56.07388 46.19626 35390 ft 469 kts 93°
2026-05-07 12:59 56.07202 46.25471 34789 ft 469 kts 93°
2026-05-07 12:59 56.07017 46.31211 34088 ft 469 kts 93°
2026-05-07 12:59 56.06829 46.37003 33378 ft 468 kts 93°
2026-05-07 12:59 56.06560 46.42783 32669 ft 468 kts 97°
2026-05-07 13:00 56.06103 46.48463 31970 ft 466 kts 101°
2026-05-07 13:00 56.05443 46.54110 31265 ft 465 kts 104°
2026-05-07 13:00 56.04582 46.59660 30564 ft 466 kts 108°
2026-05-07 13:00 56.03524 46.65107 29858 ft 467 kts 112°
2026-05-07 13:01 56.02367 46.70511 29153 ft 468 kts 112°
2026-05-07 13:01 56.01197 46.75923 28446 ft 467 kts 112°
2026-05-07 13:01 56.00032 46.81315 27742 ft 464 kts 112°
2026-05-07 13:01 55.98879 46.86651 27042 ft 461 kts 112°
2026-05-07 13:02 55.97738 46.91933 26347 ft 458 kts 112°
2026-05-07 13:02 55.96603 46.97180 25654 ft 455 kts 112°
2026-05-07 13:02 55.95478 47.02372 24959 ft 452 kts 112°
2026-05-07 13:02 55.94344 47.07591 24239 ft 449 kts 112°
2026-05-07 13:03 55.93223 47.12741 23528 ft 446 kts 112°
2026-05-07 13:03 55.92108 47.17844 22837 ft 443 kts 112°
2026-05-07 13:03 55.91002 47.22901 22153 ft 441 kts 112°
2026-05-07 13:03 55.89888 47.27982 21456 ft 438 kts 112°
2026-05-07 13:04 55.88783 47.32959 20793 ft 436 kts 112°
2026-05-07 13:04 55.87659 47.37989 20105 ft 434 kts 112°
2026-05-07 13:04 55.86555 47.42931 19433 ft 431 kts 111°
2026-05-07 13:04 55.85469 47.47809 18788 ft 429 kts 111°
2026-05-07 13:05 55.84376 47.52721 18121 ft 427 kts 111°
2026-05-07 13:05 55.83288 47.57599 17469 ft 425 kts 111°
2026-05-07 13:05 55.82202 47.62458 16814 ft 423 kts 111°
2026-05-07 13:05 55.81132 47.67250 16168 ft 421 kts 112°
2026-05-07 13:06 55.80054 47.72061 15515 ft 420 kts 112°
2026-05-07 13:06 55.78983 47.76830 14874 ft 418 kts 111°
2026-05-07 13:06 55.77903 47.81622 14222 ft 416 kts 111°
2026-05-07 13:06 55.76838 47.86338 13587 ft 414 kts 111°
2026-05-07 13:07 55.75779 47.91021 12950 ft 411 kts 111°
2026-05-07 13:07 55.74714 47.95724 12305 ft 408 kts 111°
2026-05-07 13:07 55.73668 48.00322 11667 ft 405 kts 111°
2026-05-07 13:07 55.72612 48.04960 11020 ft 402 kts 111°
2026-05-07 13:08 55.71585 48.09459 10384 ft 398 kts 111°
2026-05-07 13:08 55.70553 48.13970 9751 ft 395 kts 110°
2026-05-07 13:08 55.69534 48.18415 9243 ft 387 kts 110°
2026-05-07 13:08 55.68538 48.22746 9016 ft 372 kts 110°
2026-05-07 13:09 55.67585 48.26878 9001 ft 352 kts 110°
2026-05-07 13:09 55.66677 48.30803 9000 ft 334 kts 110°
2026-05-07 13:09 55.65831 48.34445 8993 ft 316 kts 110°
2026-05-07 13:09 55.65013 48.37960 8991 ft 300 kts 110°
2026-05-07 13:10 55.64228 48.41342 8997 ft 297 kts 110°
2026-05-07 13:10 55.63442 48.44720 9003 ft 297 kts 111°
2026-05-07 13:10 55.62598 48.48062 8994 ft 298 kts 114°
2026-05-07 13:10 55.61661 48.51275 8996 ft 298 kts 117°
2026-05-07 13:11 55.60619 48.54456 8998 ft 298 kts 119°
2026-05-07 13:11 55.59570 48.57594 9011 ft 298 kts 119°
2026-05-07 13:11 55.58518 48.60741 9005 ft 298 kts 118°
2026-05-07 13:11 55.57467 48.63882 9004 ft 297 kts 118°
2026-05-07 13:12 55.56423 48.67010 9011 ft 297 kts 119°
2026-05-07 13:12 55.55383 48.70133 9001 ft 297 kts 119°
2026-05-07 13:12 55.54332 48.73287 8987 ft 290 kts 119°
2026-05-07 13:12 55.53332 48.76271 8914 ft 278 kts 119°
2026-05-07 13:13 55.52364 48.79151 8654 ft 273 kts 119°
2026-05-07 13:13 55.51405 48.82005 8403 ft 268 kts 119°
2026-05-07 13:13 55.50474 48.84772 8143 ft 263 kts 119°
2026-05-07 13:13 55.49542 48.87539 7908 ft 258 kts 119°
2026-05-07 13:14 55.48640 48.90213 7631 ft 256 kts 119°
2026-05-07 13:14 55.47723 48.92926 7398 ft 255 kts 119°
2026-05-07 13:14 55.46818 48.95603 7172 ft 254 kts 118°
2026-05-07 13:14 55.45926 48.98237 6912 ft 253 kts 118°
2026-05-07 13:15 55.45023 49.00905 6675 ft 252 kts 118°
2026-05-07 13:15 55.44126 49.03553 6410 ft 251 kts 118°
2026-05-07 13:15 55.43235 49.06182 6174 ft 250 kts 118°
2026-05-07 13:15 55.42353 49.08780 5927 ft 249 kts 118°
2026-05-07 13:16 55.41466 49.11383 5687 ft 247 kts 118°
2026-05-07 13:16 55.40581 49.13980 5453 ft 245 kts 118°
2026-05-07 13:16 55.39709 49.16538 5183 ft 244 kts 118°
2026-05-07 13:16 55.38850 49.19056 4932 ft 241 kts 118°
2026-05-07 13:17 55.37991 49.21565 4685 ft 237 kts 118°
2026-05-07 13:17 55.37150 49.24020 4424 ft 232 kts 118°
2026-05-07 13:17 55.36335 49.26395 4183 ft 228 kts 118°
2026-05-07 13:17 55.35518 49.28781 3944 ft 224 kts 116°
2026-05-07 13:18 55.35010 49.31255 3667 ft 214 kts 91°
2026-05-07 13:18 55.35171 49.33760 3408 ft 205 kts 66°
2026-05-07 13:18 55.35885 49.35844 3167 ft 195 kts 44°
2026-05-07 13:18 55.36904 49.37317 3001 ft 184 kts 36°
2026-05-07 13:19 55.37911 49.38594 2810 ft 177 kts 36°
2026-05-07 13:19 55.38904 49.39859 2642 ft 176 kts 36°
2026-05-07 13:19 55.39887 49.41117 2474 ft 176 kts 37°
2026-05-07 13:19 55.40900 49.42424 2384 ft 180 kts 36°
2026-05-07 13:20 55.41884 49.43706 2321 ft 176 kts 37°
2026-05-07 13:20 55.42873 49.44927 2094 ft 167 kts 37°
2026-05-07 13:20 55.43761 49.45972 1867 ft 142 kts 32°
2026-05-07 13:20 55.44560 49.46943 1711 ft 138 kts 34°
2026-05-07 13:21 55.45349 49.47888 1547 ft 138 kts 36°
2026-05-07 13:21 55.46140 49.48843 1516 ft 138 kts 36°
2026-05-07 13:21 55.46941 49.49803 1521 ft 139 kts 36°
2026-05-07 13:21 55.47729 49.50759 1518 ft 138 kts 33°
2026-05-07 13:22 55.48530 49.51706 1509 ft 139 kts 36°
2026-05-07 13:22 55.49329 49.52673 1516 ft 139 kts 34°
2026-05-07 13:22 55.50222 49.53267 1482 ft 142 kts 358°
2026-05-07 13:22 55.51097 49.52486 1505 ft 149 kts 314°
2026-05-07 13:23 55.51703 49.50989 1511 ft 154 kts 307°
2026-05-07 13:23 55.52291 49.49405 1524 ft 154 kts 307°
2026-05-07 13:23 55.52892 49.47812 1508 ft 157 kts 307°
2026-05-07 13:23 55.53509 49.46220 1519 ft 158 kts 307°
2026-05-07 13:24 55.54133 49.44619 1518 ft 157 kts 307°
2026-05-07 13:24 55.54740 49.43054 1518 ft 155 kts 307°
2026-05-07 13:24 55.55350 49.41480 1528 ft 154 kts 307°
2026-05-07 13:24 55.55949 49.39932 1508 ft 152 kts 307°
2026-05-07 13:25 55.56547 49.38388 1499 ft 152 kts 308°
2026-05-07 13:25 55.57142 49.36850 1389 ft 153 kts 307°
2026-05-07 13:25 55.57744 49.35298 1096 ft 152 kts 307°
2026-05-07 13:25 55.58335 49.33772 929 ft 150 kts 307°
2026-05-07 13:26 55.58920 49.32263 736 ft 147 kts 306°
2026-05-07 13:26 55.59499 49.30775 548 ft 147 kts 307°
2026-05-07 13:26 55.60090 49.29268 425 ft 148 kts 306°
2026-05-07 13:26 55.60609 49.27945 416 ft 97 kts 299°
2026-05-07 13:27 55.60842 49.27340 416 ft 32 kts 304°
2026-05-07 13:27 55.60962 49.27029 416 ft 29 kts 304°
2026-05-07 13:27 55.61067 49.26808 416 ft 14 kts 337°
2026-05-07 13:27 55.61142 49.26838 416 ft 13 kts 31°
2026-05-07 13:28 55.61208 49.26944 416 ft 13 kts 71°
2026-05-07 13:28 55.61183 49.27091 416 ft 13 kts 123°
2026-05-07 13:28 55.61130 49.27231 416 ft 13 kts 123°
2026-05-07 13:28 55.61074 49.27375 416 ft 14 kts 124°
2026-05-07 13:29 55.61017 49.27522 416 ft 14 kts 124°
2026-05-07 13:29 55.60959 49.27674 416 ft 15 kts 123°
2026-05-07 13:29 55.60899 49.27830 416 ft 15 kts 128°
2026-05-07 13:29 55.60838 49.27986 416 ft 15 kts 124°
2026-05-07 13:30 55.60776 49.28144 416 ft 15 kts 124°
2026-05-07 13:30 55.60715 49.28306 416 ft 16 kts 124°
2026-05-07 13:30 55.60649 49.28473 416 ft 17 kts 124°
2026-05-07 13:30 55.60596 49.28670 416 ft 18 kts 103°
2026-05-07 13:31 55.60582 49.28905 416 ft 19 kts 94°
2026-05-07 13:31 55.60573 49.29154 416 ft 20 kts 86°
2026-05-07 13:31 55.60644 49.29331 416 ft 11 kts 26°
2026-05-07 13:31 55.60708 49.29406 416 ft 10 kts 56°
2026-05-07 13:32 55.60723 49.29528 416 ft 11 kts 47°
2026-05-07 13:32 55.60749 49.29644 416 ft 12 kts 117°
2026-05-07 13:32 55.60698 49.29773 416 ft 13 kts 124°
2026-05-07 13:32 55.60648 49.29906 416 ft 9 kts 114°
2026-05-07 13:33 55.60657 49.29964 416 ft 4 kts 61°
2026-05-07 13:33 55.60676 49.29998 416 ft 0 kts 36°
2026-05-07 13:33 55.60685 49.30010 416 ft 2 kts 35°
2026-05-07 13:33 55.60689 49.30015 416 ft 0 kts 35°